Madison, WI

5:52 PM CST on November 18, 2019 (GMT -0600)
Dane County Regional-Truax

Weather History for KMSN - June, 2019

Change the Weather History Date:

Tuesday, June 4, 2019

  Actual Average Record
Temperature  
Mean Temperature 65 °F 63 °F  
Max Temperature 78 °F 75 °F 92 °F (1934)
Min Temperature 52 °F 52 °F 35 °F (1982)
Degree Days  
Heating Degree Days 0 4  
Month to date heating degree days 14 17  
Since 1 June heating degree days 14 17  
Since 1 July heating degree days 7473 7290  
Cooling Degree Days 0 2  
Month to date cooling degree days 0 8  
Year to date cooling degree days 20 38  
Since 1 June cooling degree days 0 8  
Growing Degree Days 15 (Base 50)    
Moisture  
Dew Point 57 °F    
Average Humidity 71    
Maximum Humidity 79    
Minimum Humidity 62    
Precipitation  
Precipitation 0.53 in 0.15 in 2.77 in (1953)
Month to date precipitation 1.00 0.59  
Year to date precipitation 16.81 12.42  
Snow  
Snow 0.00 in 0.00 in 0.00 in (2018)
Month to date snowfall 0.0 0.0  
Since 1 June snowfall 0.0 0.0  
Since 1 July snowfall 57.2 50.9  
Snow Depth 0.00 in    
Sea Level Pressure  
Sea Level Pressure 29.86 in    
Wind  
Wind Speed 8 mph (SSW)    
Max Wind Speed 18 mph    
Max Gust Speed 29 mph    
Visibility 8 miles    
Events Rain , Thunderstorm    
T = Trace of Precipitation, MM = Missing Value Source: NWS Daily Summary

Daily Weather History Graph

Daily Weather History Graph

Search for Another Location

Airport or City:

Astronomy

Jun. 04, 2019 Rise Set
Actual Time 5:19 AM CDT 8:32 PM CDT
Civil Twilight 4:44 AM CDT 9:07 PM CDT
Nautical Twilight 3:59 AM CDT 9:52 PM CDT
Astronomical Twilight 3:05 AM CDT 10:47 PM CDT
Moon 6:28 AM CDT (6/4) 10:00 PM CDT (6/4)
Length of Visible Light 16h 22m
Length of Day
15h 13m
New Moon, 2% of the Moon is Illuminated
Jun 4
New Moon
Jun 10
First Quarter
Jun 17
Full
Jun 25
Last Quarter
Jul 2
New

Hourly Weather History & Observations

Time (CDT) Temp. Dew Point Humidity Pressure Visibility Wind Dir Wind Speed Gust Speed Precip Events Conditions
12:53 AM 55.9 °F 44.1 °F 64% 30.02 in 10.0 mi SE 5.8 mph - 0.00 in Rain Light Rain
1:53 AM 57.0 °F 44.1 °F 62% 30.01 in 10.0 mi South 5.8 mph - 0.00 in   Overcast
3:53 AM 55.0 °F 46.9 °F 74% 29.98 in 10.0 mi SSE 4.6 mph - 0.00 in   Unknown
4:53 AM 55.9 °F 46.9 °F 72% 29.95 in 10.0 mi South 4.6 mph - N/A   Mostly Cloudy
5:53 AM 57.9 °F 50.0 °F 75% 29.95 in 10.0 mi South 6.9 mph - N/A   Mostly Cloudy
6:53 AM 61.0 °F 53.1 °F 75% 29.94 in 10.0 mi SSW 6.9 mph - N/A   Mostly Cloudy
7:53 AM 63.0 °F 52.0 °F 67% 29.95 in 10.0 mi SSW 13.8 mph 21.9 mph N/A   Mostly Cloudy
8:45 AM 63.0 °F 54.0 °F 72% 29.95 in 10.0 mi SSW 12.7 mph - N/A   Mostly Cloudy
8:53 AM 63.0 °F 54.0 °F 72% 29.95 in 10.0 mi South 15.0 mph 21.9 mph N/A   Mostly Cloudy
9:08 AM 62.1 °F 55.0 °F 78% 29.96 in 10.0 mi SSW 11.5 mph 24.2 mph N/A   Mostly Cloudy
9:53 AM 61.0 °F 55.9 °F 83% 29.95 in 10.0 mi SSW 11.5 mph - 0.00 in Rain Light Rain
10:01 AM 60.1 °F 55.9 °F 86% 29.96 in 9.0 mi SSW 12.7 mph 21.9 mph 0.00 in Rain , Thunderstorm Light Thunderstorms and Rain
10:45 AM 59.0 °F 55.9 °F 90% 29.95 in 2.5 mi SSW 15.0 mph 21.9 mph 0.03 in Rain , Thunderstorm Thunderstorms and Rain
10:48 AM 59.0 °F 55.4 °F 88% 29.94 in 3.0 mi South 13.8 mph 21.9 mph 0.04 in Rain , Thunderstorm Thunderstorms and Rain
10:53 AM 59.0 °F 55.9 °F 90% 29.92 in 3.0 mi South 16.1 mph 21.9 mph 0.06 in Rain , Thunderstorm Thunderstorms and Rain
11:10 AM 59.0 °F 55.9 °F 90% 29.92 in 3.0 mi South 9.2 mph 19.6 mph 0.04 in Rain , Thunderstorm Thunderstorms and Rain
11:19 AM 59.0 °F 55.9 °F 90% 29.92 in 9.0 mi South 6.9 mph - 0.04 in Rain Light Rain
11:53 AM 63.0 °F 57.9 °F 84% 29.91 in 10.0 mi South 11.5 mph - 0.04 in   Mostly Cloudy
12:53 PM 66.0 °F 57.9 °F 75% 29.87 in 10.0 mi South 8.1 mph - N/A   Mostly Cloudy
1:53 PM 71.1 °F 59.0 °F 66% 29.83 in 10.0 mi South 13.8 mph 21.9 mph N/A   Mostly Cloudy
2:53 PM 73.9 °F 62.1 °F 66% 29.81 in 10.0 mi SSW 8.1 mph 20.7 mph N/A   Mostly Cloudy
3:53 PM 75.0 °F 63.0 °F 66% 29.80 in 10.0 mi SSW 11.5 mph 21.9 mph N/A   Mostly Cloudy
4:53 PM 75.9 °F 64.0 °F 67% 29.77 in 10.0 mi SSW 9.2 mph - N/A   Mostly Cloudy
5:53 PM 75.9 °F 64.9 °F 69% 29.73 in 10.0 mi South 9.2 mph - N/A   Mostly Cloudy
6:53 PM 78.1 °F 64.9 °F 64% 29.70 in 10.0 mi SSW 6.9 mph - N/A   Mostly Cloudy
7:53 PM 75.9 °F 64.0 °F 67% 29.72 in 10.0 mi SSW 5.8 mph - N/A   Mostly Cloudy
8:53 PM 73.0 °F 64.9 °F 76% 29.71 in 10.0 mi South 5.8 mph - N/A   Mostly Cloudy
9:53 PM 71.1 °F 64.9 °F 81% 29.73 in 10.0 mi SSW 3.5 mph - N/A   Overcast
10:33 PM 73.0 °F 59.0 °F 61% 29.74 in 10.0 mi West 9.2 mph 21.9 mph N/A Thunderstorm Thunderstorm
10:45 PM 66.9 °F 60.1 °F 79% 29.77 in 1.8 mi West 11.5 mph 24.2 mph 0.11 in Rain , Thunderstorm Heavy Thunderstorms and Rain
10:53 PM 64.9 °F 62.1 °F 90% 29.75 in 1.0 mi West 8.1 mph 19.6 mph 0.29 in Rain , Thunderstorm Heavy Thunderstorms and Rain
11:05 PM 64.9 °F 62.1 °F 90% 29.75 in 3.0 mi Calm Calm - 0.07 in Rain , Thunderstorm Light Thunderstorms and Rain
11:20 PM 64.0 °F 62.1 °F 93% 29.71 in 6.0 mi ESE 8.1 mph - 0.09 in Rain , Thunderstorm Rain
11:36 PM 64.0 °F 62.1 °F 93% 29.72 in 10.0 mi SSE 4.6 mph - 0.12 in Rain Light Rain
11:53 PM 64.0 °F 62.1 °F 93% 29.74 in 8.0 mi West 4.6 mph - 0.13 in Rain Light Rain